Tracking 19969 objects as of 14-Nov-2019
Live streaming from Space Station
objects crossing your sky now
Track the group of recently launched Starlink satellites

DELTA 1 DEB

Track DELTA 1 DEB now!
10-day predictions


NORAD ID: 37644
Int'l Code: 1978-026JF
Perigee: 793.7 km
Apogee: 879.6 km
Inclination: 98.8 °
Period: 101.5 minutes
Semi major axis: 7207 km
RCS: 0.0134 m2 (small)
Launch date: March 5, 1978
Source: United States (US)
Launch site: AIR FORCE WESTERN TEST RANGE (AFWTR)

Note: This is SATELLITE DEBRIS
aabbcc
Your satellite tracking list
Your tracking list is empty




NASA's NSSDC Master Catalog

Two Line Element Set (TLE):
1 37644U 78026JF  19316.43812689  .00000420  00000-0  21972-3 0  9998
2 37644  98.8404 197.1485 0059607  20.6686 339.6881 14.18781448859689
Source of the keplerian elements: AFSPC